Weather History for Kiana, AK

Change the Weather History Date:

Friday, October 18, 2013

  Actual Average (PASK) Record (PASK)
Temperature  
Mean Temperature 36 °F -  
Max Temperature 43 °F 21 °F 42 °F (2013)
Min Temperature 28 °F 13 °F 0 °F (1996)
Degree Days  
Heating Degree Days 29    
Moisture  
Dew Point 33 °F    
Average Humidity 98    
Maximum Humidity 100    
Minimum Humidity 93    
Precipitation  
Precipitation 0.00 in - - ()
Sea Level Pressure  
Sea Level Pressure 29.52 in    
Wind  
Wind Speed 5 mph (NNE)    
Max Wind Speed 12 mph    
Max Gust Speed 16 mph    
Visibility 8 miles    
Events Rain , Snow    
Averages and records for this station are not official NWS values.
T = Trace of Precipitation, MM = Missing Value Source: NWS Daily Summary

Daily Weather History Graph

Daily Weather History Graph

Search for Another Location

Airport:

Trip Planner

Search our weather history database for the weather conditions in past years. The results will help you decide how hot, cold, wet, or windy it might be!

Date:

Astronomy

Oct. 18, 2013 Rise Set
Actual Time 9:54 AM AKDT 6:58 PM AKDT
Civil Twilight 8:58 AM AKDT 7:53 PM AKDT
Nautical Twilight 7:56 AM AKDT 8:55 PM AKDT
Astronomical Twilight 6:53 AM AKDT 9:57 PM AKDT
Moon 6:39 PM AKDT (10/18) 9:49 AM AKDT (10/18)
Length of Visible Light 10h 55m
Length of Day
9h 04m
Full, 100% of the Moon is Illuminated
Oct 18
Full
Oct 18
Full
Oct 26
Last Quarter
Nov 3
New
Nov 9
First Quarter

Hourly Weather History & Observations

Time (AKDT) Temp. Windchill Dew Point Humidity Pressure Visibility Wind Dir Wind Speed Gust Speed Precip Events Conditions
12:01 AM 35.1 °F 31.0 °F 34.0 °F 96% 29.67 in 10.0 mi East 4.6 mph - N/A   Scattered Clouds
1:01 AM 33.8 °F - 33.8 °F 100% 29.55 in 10.0 mi Calm Calm - N/A   Mostly Cloudy
2:01 AM 34.0 °F 31.0 °F 33.1 °F 96% 29.68 in 10.0 mi SSW 3.5 mph - N/A   Overcast
2:28 AM 33.8 °F 29.6 °F 32.0 °F 93% 29.55 in 10.0 mi SW 4.6 mph - N/A   Partly Cloudy
3:01 AM 32.0 °F 27.5 °F 30.9 °F 96% 29.68 in 10.0 mi ENE 4.6 mph - N/A   Clear
4:01 AM 30.9 °F - 30.0 °F 96% 29.68 in 10.0 mi Calm Calm - N/A   Clear
5:01 AM 30.9 °F - 30.0 °F 96% 29.67 in 10.0 mi Calm Calm - N/A   Clear
6:01 AM 28.9 °F - 28.9 °F 100% 29.66 in 10.0 mi Calm Calm - N/A   Clear
7:01 AM 28.9 °F 25.2 °F 28.0 °F 96% 29.65 in 6.0 mi NNW 3.5 mph - N/A   Clear
7:10 AM 28.4 °F 24.6 °F 28.4 °F 100% 29.53 in 2.5 mi NE 3.5 mph - N/A   Partly Cloudy
7:16 AM 28.4 °F 23.3 °F 28.4 °F 100% 29.53 in 1.0 mi NE 4.6 mph - N/A   Mist
7:24 AM 28.4 °F 24.6 °F 28.4 °F 100% 29.52 in 0.8 mi NNE 3.5 mph - N/A   Mostly Cloudy
7:29 AM 28.4 °F 24.6 °F 28.4 °F 100% 29.52 in 1.2 mi NE 3.5 mph - N/A   Scattered Clouds
7:32 AM 28.4 °F 23.3 °F 28.4 °F 100% 29.52 in 3.0 mi NNE 4.6 mph - N/A   Scattered Clouds
8:01 AM 28.0 °F 22.8 °F 28.0 °F 100% 29.64 in 10.0 mi NNW 4.6 mph - N/A   Scattered Clouds
8:24 AM 28.4 °F 22.2 °F 26.6 °F 93% 29.51 in 3.0 mi NNW 5.8 mph - N/A   Mostly Cloudy
8:44 AM 28.4 °F 20.4 °F 28.4 °F 100% 29.51 in 10.0 mi NNW 8.1 mph - N/A   Overcast
9:01 AM 30.0 °F 23.2 °F 30.0 °F 100% 29.64 in 10.0 mi North 6.9 mph - N/A   Overcast
10:01 AM 30.9 °F 24.3 °F 30.0 °F 96% 29.62 in 10.0 mi North 6.9 mph - N/A   Overcast
10:52 AM 30.2 °F 22.6 °F 30.2 °F 100% 29.49 in 9.0 mi North 8.1 mph - N/A Snow Light Snow
11:01 AM 30.2 °F 23.4 °F 30.2 °F 100% 29.49 in 9.0 mi North 6.9 mph - N/A   Overcast
11:30 AM 32.0 °F 24.2 °F 30.2 °F 93% 29.48 in 9.0 mi North 9.2 mph - N/A Snow Light Snow
12:01 PM 32.0 °F 24.8 °F 32.0 °F 100% 29.60 in 8.0 mi North 8.1 mph - N/A Snow Light Snow
1:01 PM 33.1 °F 25.5 °F 32.0 °F 96% 29.59 in 10.0 mi North 9.2 mph - N/A Rain Light Rain
1:52 PM 33.8 °F 26.4 °F 32.0 °F 93% 29.45 in 10.0 mi North 9.2 mph - N/A Rain Light Rain
2:01 PM 33.1 °F 25.5 °F 32.0 °F 96% 29.58 in 10.0 mi North 9.2 mph - N/A Rain Light Rain
2:25 PM 33.8 °F 26.4 °F 33.8 °F 100% 29.44 in 10.0 mi NNW 9.2 mph - N/A Rain Light Rain
2:46 PM 33.8 °F 26.4 °F 32.0 °F 93% 29.44 in 10.0 mi North 9.2 mph - N/A Rain Light Rain
3:01 PM 33.1 °F 25.5 °F 33.1 °F 100% 29.56 in 10.0 mi North 9.2 mph - N/A Rain Light Rain
4:01 PM 34.0 °F 27.2 °F 33.1 °F 96% 29.53 in 10.0 mi North 8.1 mph - N/A Rain Light Rain
4:22 PM 33.8 °F 27.7 °F 33.8 °F 100% 29.40 in 10.0 mi North 6.9 mph - N/A Rain Light Rain
5:01 PM 34.0 °F 27.2 °F 34.0 °F 100% 29.52 in 10.0 mi North 8.1 mph - N/A Rain Light Rain
5:41 PM 35.6 °F 29.2 °F 33.8 °F 93% 29.38 in 10.0 mi NNW 8.1 mph - N/A Rain Light Rain
6:01 PM 35.1 °F 29.3 °F 35.1 °F 100% 29.50 in 4.0 mi NNW 6.9 mph - N/A Rain Light Rain
6:10 PM 35.6 °F 29.9 °F 35.6 °F 100% 29.37 in 3.0 mi North 6.9 mph - N/A Rain Light Rain
7:01 PM 39.0 °F 35.7 °F 39.0 °F 100% 29.49 in 10.0 mi WNW 4.6 mph - N/A   Overcast
7:25 PM 41.0 °F 37.1 °F 41.0 °F 100% 29.36 in 10.0 mi East 5.8 mph - N/A   Overcast
8:01 PM 42.1 °F 37.7 °F 41.0 °F 96% 29.48 in 10.0 mi East 6.9 mph - N/A   Overcast
8:19 PM 42.8 °F 37.0 °F 42.8 °F 100% 29.36 in 10.0 mi ESE 10.4 mph 16.1 mph N/A   Overcast
9:01 PM 43.0 °F 37.7 °F 42.1 °F 97% 29.49 in 10.0 mi East 9.2 mph - N/A Rain Light Rain
9:45 PM 42.8 °F 38.6 °F 42.8 °F 100% 29.36 in 10.0 mi ESE 6.9 mph - N/A Rain Light Rain
10:01 PM 43.0 °F 37.2 °F 42.1 °F 97% 29.49 in 10.0 mi East 10.4 mph - N/A Rain Light Rain
10:11 PM 44.6 °F 38.8 °F 42.8 °F 93% 29.36 in 10.0 mi East 11.5 mph - N/A Rain Light Rain
11:01 PM 43.0 °F 36.8 °F 42.1 °F 97% 29.48 in 10.0 mi East 11.5 mph - N/A   Overcast